FW3145 Weather Reports


Display with metric or nautical units.
time (UTC)temp
F
wind
direction
speed
MPH
gust
MPH
rain 1hr
in
rain 24hr
in
rain mn
in
humidity
%
barometer
mb
20260902003004 71 88 0.0 0.0 0.00 0.00 0.00 78 1015.6
20260902001502 72 88 0.0 0.0 0.00 0.00 0.00 77 1015.6
20260902000104 72 88 0.0 0.0 0.00 0.00 0.00 76 1015.5
20260901234556 74 88 0.0 0.0 0.00 0.00 0.00 73 1015.4
20260901233056 75 89 0.0 0.0 0.00 0.00 0.00 70 1015.5
20260901231558 75 24 0.0 0.0 0.00 0.00 0.00 72 1015.3
20260901230051 74 36 0.0 0.0 0.00 0.00 0.00 73 1015.3
20260901224550 75 31 0.0 0.0 0.00 0.00 0.00 71 1015.3
20260901223050 75 38 0.0 0.0 0.00 0.00 0.00 70 1015.1
20260901221557 73 44 0.0 0.0 0.00 0.00 0.00 72 1015.0
20260901220052 74 26 0.0 0.0 0.00 0.00 0.00 71 1015.1
20260901214541 74 27 0.0 0.0 0.00 0.00 0.00 70 1014.9
20260901213041 74 5 0.0 0.0 0.00 0.00 0.00 70 1014.9
20260901211541 74 13 0.0 0.0 0.00 0.00 0.00 70 1014.9
20260901210043 74 22 0.0 0.0 0.00 0.00 0.00 71 1014.9
20260901204539 74 360 0.0 0.0 0.00 0.00 0.00 70 1014.9
20260901203039 74 360 0.0 0.0 0.00 0.00 0.00 69 1014.8
20260901201538 75 28 0.0 0.0 0.00 0.00 0.00 70 1014.9
20260901200040 75 355 0.0 0.0 0.00 0.00 0.00 70 1014.8
20260901194536 75 33 0.0 0.0 0.00 0.00 0.00 70 1014.8
20260901193036 75 45 0.0 0.0 0.00 0.00 0.00 70 1014.7
20260901191552 76 327 0.0 0.0 0.00 0.00 0.00 70 1014.5
20260901190035 76 327 0.0 0.0 0.00 0.00 0.00 68 1014.4
20260901184541 77 327 0.0 0.0 0.00 0.00 0.00 66 1014.3
20260901183045 78 327 0.0 0.0 0.00 0.00 0.00 64 1014.0
20260901181532 79 11 0.0 0.0 0.00 0.00 0.00 64 1014.0
20260901180032 80 5 0.0 0.0 0.00 0.00 0.00 64 1013.9
20260901174531 81 340 0.0 0.0 0.00 0.00 0.00 62 1013.7
20260901173031 83 9 0.0 0.0 0.00 0.00 0.00 61 1013.7
20260901171531 85 350 0.0 0.0 0.00 0.00 0.00 57 1013.5
20260901170030 87 268 0.0 0.0 0.00 0.00 0.00 54 1013.6
20260901164540 88 265 0.0 0.0 0.00 0.00 0.00 51 1013.6
20260901163029 89 291 0.0 0.0 0.00 0.00 0.00 50 1013.6
20260901161547 89 263 0.0 0.0 0.00 0.00 0.00 48 1013.5
20260901160028 90 267 0.0 0.0 0.00 0.00 0.00 46 1013.5
20260901154526 91 273 0.0 0.0 0.00 0.00 0.00 45 1013.5
20260901153026 92 263 0.0 0.0 0.00 0.00 0.00 43 1013.4
20260901151526 92 242 0.0 0.0 0.00 0.00 0.00 45 1013.3
20260901150035 92 218 0.0 0.0 0.00 0.00 0.00 48 1013.3
20260901144535 92 259 0.0 0.0 0.00 0.00 0.00 49 1013.3
20260901143023 93 252 0.0 0.0 0.00 0.00 0.00 48 1013.4
20260901141522 93 292 0.0 0.0 0.00 0.00 0.00 52 1013.4
20260901140021 94 214 0.0 0.0 0.00 0.00 0.00 48 1013.4
20260901134525 93 264 0.0 0.0 0.00 0.00 0.00 47 1013.3
20260901133020 94 196 0.0 0.0 0.00 0.00 0.00 44 1013.5
20260901131520 94 235 0.0 0.0 0.00 0.00 0.00 49 1013.5
20260901130023 93 241 0.0 0.0 0.00 0.00 0.00 49 1013.7
20260901124517 93 227 0.0 0.0 0.00 0.00 0.00 49 1013.9
20260901123011 92 151 0.0 0.0 0.00 0.00 0.00 49 1013.9
20260901121509 92 148 0.0 0.0 0.00 0.00 0.00 52 1014.0
20260901120007 91 167 0.0 0.0 0.00 0.00 0.00 48 1014.1
20260901114508 91 148 0.0 0.0 0.00 0.00 0.00 49 1014.1
20260901113003 91 211 0.0 0.0 0.00 0.00 0.00 46 1014.2
20260901111600 90 164 0.0 0.0 0.00 0.00 0.00 49 1014.3
20260901110058 89 145 0.0 0.0 0.00 0.00 0.00 52 1014.3
20260901104554 88 150 0.0 0.0 0.00 0.00 0.00 57 1014.4
20260901103050 87 162 0.0 0.0 0.00 0.00 0.00 59 1014.5
20260901101550 87 190 0.0 0.0 0.00 0.00 0.00 62 1014.6
20260901100044 86 128 0.0 0.0 0.00 0.00 0.00 63 1014.7
20260901094542 85 198 0.0 0.0 0.00 0.00 0.00 66 1014.7
20260901093037 84 137 0.0 0.0 0.00 0.00 0.00 67 1014.9
20260901091532 84 111 0.0 0.0 0.00 0.00 0.00 68 1014.9
20260901090028 82 182 0.0 0.0 0.00 0.00 0.00 69 1014.9
20260901084525 82 144 0.0 0.0 0.00 0.00 0.00 73 1014.8
20260901083020 82 153 0.0 0.0 0.00 0.00 0.00 72 1014.8
20260901081516 81 184 0.0 0.0 0.00 0.00 0.00 72 1014.8
20260901080015 80 162 0.0 0.0 0.00 0.00 0.00 72 1014.7
20260901074507 78 145 0.0 0.0 0.00 0.00 0.00 75 1014.8
20260901073003 77 140 0.0 0.0 0.00 0.00 0.00 76 1014.6
20260901071559 76 126 0.0 0.0 0.00 0.00 0.00 78 1014.5
20260901070104 75 129 0.0 0.0 0.00 0.00 0.00 78 1014.6
20260901064551 75 126 0.0 0.0 0.00 0.00 0.00 79 1014.8
20260901063046 74 125 0.0 0.0 0.00 0.00 0.00 80 1014.7
20260901061542 72 124 0.0 0.0 0.00 0.00 0.00 79 1014.6
20260901060038 71 125 0.0 0.0 0.00 0.00 0.00 79 1014.6
20260901054538 71 125 0.0 0.0 0.00 0.00 0.00 78 1014.5
20260901053039 70 340 0.0 0.0 0.00 0.00 0.00 77 1014.4
20260901051536 68 340 0.0 0.0 0.00 0.00 0.00 78 1014.4
20260901050030 68 340 0.0 0.0 0.00 0.00 0.00 79 1014.2
20260901044541 68 37 0.0 0.0 0.00 0.00 0.00 79 1014.0
20260901043026 68 37 0.0 0.0 0.00 0.00 0.00 79 1014.0
20260901041530 68 37 0.0 0.0 0.00 0.00 0.00 80 1013.9
20260901040024 69 37 0.0 0.0 0.00 0.00 0.00 79 1013.9
20260901034531 69 40 0.0 0.0 0.00 0.00 0.00 80 1013.8
20260901033038 69 40 0.0 0.0 0.00 0.00 0.00 80 1013.8
20260901031517 69 40 0.0 0.0 0.00 0.00 0.00 80 1013.9
20260901030025 70 40 0.0 0.0 0.00 0.00 0.00 80 1014.0
20260901024522 70 40 0.0 0.0 0.00 0.00 0.00 80 1014.0
20260901023014 70 40 0.0 0.0 0.00 0.00 0.00 80 1014.0
20260901021518 71 41 0.0 0.0 0.00 0.00 0.00 80 1014.0
20260901020015 71 41 0.0 0.0 0.00 0.00 0.00 79 1014.1
20260901014512 72 41 0.0 0.0 0.00 0.00 0.00 79 1014.0
20260901013012 72 51 0.0 0.0 0.00 0.00 0.00 80 1013.8
20260901011513 71 47 0.0 0.0 0.00 0.00 0.00 80 1013.9
20260901010017 70 20 0.0 0.0 0.00 0.00 0.00 80 1013.9
20260901004510 70 20 0.0 0.0 0.00 0.00 0.00 80 1013.9